Main page
Satellite images Climate Cyclones Lightning AirportsFAQ Languages Contact Newsletter About
Weather : Europe Africa North America South America Asia Australia-Oceania Others

chiang-mai-th, Chiang Mai, Chiang Mai International Airport

48327

latitude: , longitude: Thailand, elevation: 18-47N m


METAR: VTCC 221700Z 00000KT 5000 HZ NSC 25/14 Q1012 NOSIG